Regional Weather Roundup
Issued by NWS

Home | Current Version | Previous Version | Graphics & Text | Print | Product List | Glossary On
Versions: 1 2 3 4 5 6 7 8 9 10 11 12 13 14 15 16 17 18 19 20 21 22 23 24 25 26 27 28 29 30 31 32 33 34 35 36 37 38 39 40 41 42 43 44 45 46 47 48 49 50
000
ASUS43 KIND 221859
RWRIN

WEATHER ROUNDUP FOR INDIANA
NATIONAL WEATHER SERVICE INDIANAPOLIS IN
200 PM EST SUN JAN 22 2017

NOTE: "FAIR" INDICATES FEW OR NO CLOUDS BELOW 12,000 FEET WITH NO
SIGNIFICANT WEATHER AND/OR OBSTRUCTIONS TO VISIBILITY.

* - STATION DOES NOT REPORT WEATHER SUCH AS PRECIPITATION OR FOG.

+ - STATION NOT QUALITY CONTROLLED BY THE NATIONAL WEATHER SERVICE.
    USE DATA WITH CAUTION...ESPECIALLY DEWPOINT AND RELATIVE
    HUMIDITY OBSERVATIONS.

INZ001>003-010>013-019-020-222000-
NORTHWEST INDIANA

CITY           SKY/WX    TMP DP  RH WIND       PRES   REMARKS
GARY /AIRPORT/ FOG       41  41 100 NE5       29.62F VSB 1/4
KNOX *+        CLOUDY    43  36  75 N8        29.57F
LA PORTE +     CLOUDY    43  42  98 N10       29.59S FOG
MICHIGAN CITY+ CLOUDY    41  41 100 N9        29.60F FOG
MONTICELLO +   PTSUNNY   51  48  91 N7        29.54F

$$

LMZ046-743>745-222000-
SOUTHERN LAKE MICHIGAN

STATION/POSITION TIME  TEMP    WIND        PRES    WAVE
                       AIR SEA DIR/SP/G            HT
                 (UTC) (F)     (DEG/KT/KT) (MB)    (FT)
BURNS HARBOR     1840   35     360/  6/  8 1003.7F
MICHIGAN CITY    1830   36     360/  8/  8   N/A

$$

INZ004-005-014>016-021>024-222000-
NORTH CENTRAL INDIANA

CITY           SKY/WX    TMP DP  RH WIND       PRES   REMARKS
GOSHEN         CLOUDY    50  47  89 N7        29.56F FOG
SOUTH BEND     FOG       42  42 100 N7        29.59F VSB 1/2
WARSAW +       CLOUDY    50  50 100 N7        29.55F

$$

INZ006>009-017-018-025>027-222000-
NORTHEAST INDIANA

CITY           SKY/WX    TMP DP  RH WIND       PRES   REMARKS
ANGOLA *+      PTSUNNY   52  39  62 N3        29.56F
FORT WAYNE     PTSUNNY   61  49  64 NE5       29.54F
KENDALLVILLE + CLOUDY    53  51  92 N6        29.56F

$$

INZ028-029-035-036-043>045-051>053-222000-
WEST CENTRAL INDIANA

CITY           SKY/WX    TMP DP  RH WIND       PRES   REMARKS
CRAWFORDSVL +  CLOUDY    58  53  83 NE5       29.51F
LAFAYETTE      MOSUNNY   52  48  86 N12       29.53F
TERRE HAUTE    CLOUDY    59  50  72 N7        29.48F

$$

INZ030>032-037>040-046>048-054>057-064-065-222000-
CENTRAL INDIANA

CITY           SKY/WX    TMP DP  RH WIND       PRES   REMARKS
COLUMBUS       MOSUNNY   57  55  94 N8        29.47F
FRANKFORT +    PTSUNNY   62  55  75 NE6       29.53F
INDIANAPOLIS   CLOUDY    60  51  72 N8        29.48F
-EAGLE CREEK   CLOUDY    61  50  67 N7        29.49F
KOKOMO +       MOSUNNY   59  53  80 N7        29.53F
MT COMFORT *+  CLOUDY    59  52  77 NE7       29.50F
SHELBYVILLE    CLOUDY    60  51  72 NE9       29.47F

$$

INZ033-034-041-042-049-050-058-059-222000-
EAST CENTRAL INDIANA

CITY           SKY/WX    TMP DP  RH WIND       PRES   REMARKS
MUNCIE         MOSUNNY   62  52  69 NE6       29.50F

$$

INZ060-061-067>069-081>083-085>088-222000-
SOUTHWEST INDIANA

CITY           SKY/WX    TMP DP  RH WIND       PRES   REMARKS
EVANSVILLE     CLOUDY    60  51  72 E9        29.43F
HUNTINGBURG *+ CLOUDY    57  52  82 NE10      29.43F

$$

INZ062-063-066-070>080-084-089>092-222000-
SOUTH CENTRAL AND SOUTHEAST INDIANA

CITY           SKY/WX    TMP DP  RH WIND       PRES   REMARKS
BLOOMINGTON    MOSUNNY   59  50  72 N9        29.46F
MADISON *+     CLOUDY    59  50  72 NE8       29.46F
SEYMOUR +      MOSUNNY   61  52  72 NE8       29.45F

$$




USA.gov is the U.S. government's official web portal to all federal, state and local government web resources and services.